Buena Vista, CO

3:41 AM MDT on October 24, 2017 (GMT -0600)
Buena Vista

Weather History for KAEJ - June, 2013

Change the Weather History Date:

Saturday, June 8, 2013

  Actual Average (KLXV) Record (KLXV)
Temperature  
Mean Temperature 58 °F -  
Max Temperature 79 °F 60 °F 75 °F (1985)
Min Temperature 38 °F 33 °F 19 °F (2007)
Degree Days  
Heating Degree Days 6    
Growing Degree Days 8 (Base 50)    
Moisture  
Dew Point 28 °F    
Average Humidity 36    
Maximum Humidity 76    
Minimum Humidity 8    
Precipitation  
Precipitation 0.00 in - - ()
Sea Level Pressure  
Sea Level Pressure 30.10 in    
Wind  
Wind Speed 7 mph (WNW)    
Max Wind Speed 22 mph    
Max Gust Speed 36 mph    
Visibility 10 miles    
Events      
Averages and records for this station are not official NWS values.
T = Trace of Precipitation, MM = Missing Value Source: NWS Daily Summary

Daily Weather History Graph

Daily Weather History Graph

Search for Another Location

Airport or City:

Trip Planner

Search our weather history database for the weather conditions in past years. The results will help you decide how hot, cold, wet, or windy it might be!

Date:

Astronomy

Jun. 08, 2013 Rise Set
Actual Time 5:39 AM MDT 8:28 PM MDT
Civil Twilight 5:07 AM MDT 9:00 PM MDT
Nautical Twilight 4:27 AM MDT 9:39 PM MDT
Astronomical Twilight 3:42 AM MDT 10:25 PM MDT
Moon 5:48 AM MDT (6/8) 8:33 PM MDT (6/8)
Length of Visible Light 15h 52m
Length of Day
14h 48m
New Moon, 0% of the Moon is Illuminated
Jun 8
New Moon
Jun 16
First Quarter
Jun 23
Full
Jun 29
Last Quarter
Jul 8
New

Hourly Weather History & Observations

Time (MDT) Temp. Windchill Dew Point Humidity Pressure Visibility Wind Dir Wind Speed Gust Speed Precip Events Conditions
12:15 AM 48.2 °F - 32.2 °F 54% 30.11 in 10.0 mi Calm Calm - N/A   Scattered Clouds
12:35 AM 44.4 °F 42.0 °F 32.2 °F 62% 30.11 in 10.0 mi West 4.6 mph - N/A   Clear
12:55 AM 43.5 °F 40.9 °F 32.2 °F 64% 30.09 in 10.0 mi West 4.6 mph - N/A   Scattered Clouds
1:15 AM 44.4 °F 42.9 °F 32.2 °F 62% 30.09 in 10.0 mi West 3.5 mph - N/A   Clear
1:35 AM 45.3 °F - 32.2 °F 60% 30.09 in 10.0 mi Calm Calm - N/A   Clear
1:55 AM 43.0 °F - 32.0 °F 65% 30.09 in 10.0 mi Calm Calm - N/A   Clear
2:15 AM 43.2 °F 39.7 °F 32.4 °F 66% 30.08 in 10.0 mi West 5.8 mph - N/A   Clear
2:35 AM 42.4 °F 37.5 °F 32.2 °F 67% 30.08 in 10.0 mi West 8.1 mph - N/A   Clear
2:55 AM 40.5 °F 36.5 °F 32.0 °F 72% 30.08 in 10.0 mi West 5.8 mph - N/A   Clear
3:15 AM 41.0 °F 37.1 °F 32.0 °F 70% 30.07 in 10.0 mi West 5.8 mph - N/A   Clear
3:35 AM 41.2 °F - 32.2 °F 70% 30.09 in 10.0 mi Calm Calm - N/A   Clear
3:55 AM 41.0 °F 39.0 °F 32.0 °F 70% 30.09 in 10.0 mi WNW 3.5 mph - N/A   Clear
4:15 AM 41.9 °F 39.0 °F 32.0 °F 68% 30.08 in 10.0 mi WNW 4.6 mph - N/A   Clear
4:35 AM 38.8 °F 35.4 °F 32.0 °F 76% 30.08 in 10.0 mi WSW 4.6 mph - N/A   Clear
4:55 AM 39.0 °F 34.8 °F 32.0 °F 76% 30.09 in 10.0 mi West 5.8 mph - N/A   Clear
5:15 AM 39.4 °F 35.2 °F 32.0 °F 75% 30.08 in 10.0 mi NW 5.8 mph - N/A   Clear
5:35 AM 39.6 °F 36.3 °F 32.0 °F 74% 30.09 in 10.0 mi WNW 4.6 mph - N/A   Clear
5:55 AM 41.2 °F 36.6 °F 32.4 °F 71% 30.09 in 10.0 mi WSW 6.9 mph - N/A   Clear
6:15 AM 43.0 °F - 32.9 °F 68% 30.08 in 10.0 mi Calm Calm - N/A   Clear
6:35 AM 44.8 °F - 33.8 °F 65% 30.09 in 10.0 mi Calm Calm - N/A   Clear
6:55 AM 47.8 °F - 33.4 °F 57% 30.09 in 10.0 mi Calm Calm - N/A   Clear
7:15 AM 50.0 °F - 34.5 °F 55% 30.07 in 10.0 mi Calm Calm - N/A   Clear
7:35 AM 52.9 °F - 34.3 °F 49% 30.07 in 10.0 mi Calm Calm - N/A   Clear
7:55 AM 55.0 °F - 34.2 °F 45% 30.08 in 10.0 mi East 4.6 mph - N/A   Clear
8:15 AM 57.2 °F - 34.3 °F 42% 30.08 in 10.0 mi ESE 3.5 mph - N/A   Clear
8:35 AM 60.4 °F - 35.1 °F 39% 30.08 in 10.0 mi East 5.8 mph - N/A   Clear
8:55 AM 62.6 °F - 33.8 °F 34% 30.08 in 10.0 mi ESE 5.8 mph - N/A   Clear
9:15 AM 64.9 °F - 33.3 °F 31% 30.08 in 10.0 mi SSE 8.1 mph - N/A   Clear
9:35 AM 66.2 °F - 32.0 °F 28% 30.07 in 10.0 mi SE 9.2 mph - N/A   Clear
9:55 AM 68.2 °F - 31.3 °F 25% 30.07 in 10.0 mi SE 9.2 mph - N/A   Clear
10:15 AM 70.0 °F - 30.7 °F 23% 30.05 in 10.0 mi East 8.1 mph - N/A   Clear
10:35 AM 71.4 °F - 30.0 °F 22% 30.05 in 10.0 mi East 8.1 mph 16.1 mph N/A   Clear
10:55 AM 73.6 °F - 29.1 °F 19% 30.05 in 10.0 mi East 6.9 mph - N/A   Scattered Clouds
11:15 AM 71.8 °F - 25.2 °F 18% 30.06 in 10.0 mi Calm Calm - N/A   Mostly Cloudy
11:35 AM 74.8 °F - 24.3 °F 15% 30.05 in 10.0 mi West 8.1 mph - N/A   Mostly Cloudy
11:55 AM 76.3 °F - 18.7 °F 11% 30.05 in 10.0 mi WNW 18.4 mph 24.2 mph N/A   Scattered Clouds
12:15 PM 76.8 °F - 18.9 °F 11% 30.05 in 10.0 mi NNW 16.1 mph 21.9 mph N/A   Clear
12:35 PM 76.6 °F - 14.7 °F 10% 30.06 in 10.0 mi WNW 19.6 mph 24.2 mph N/A   Scattered Clouds
12:55 PM 77.7 °F - 12.7 °F 8% 30.06 in 10.0 mi West 18.4 mph 32.2 mph N/A   Clear
1:15 PM 78.1 °F - 11.8 °F 8% 30.07 in 10.0 mi West 20.7 mph 26.5 mph N/A   Clear
1:35 PM 78.1 °F - 12.2 °F 8% 30.07 in 10.0 mi West 16.1 mph 33.4 mph N/A   Clear
1:55 PM 78.6 °F - 13.5 °F 9% 30.07 in 10.0 mi WNW 18.4 mph 35.7 mph N/A   Clear
2:15 PM 78.3 °F - 15.8 °F 10% 30.07 in 10.0 mi WNW 18.4 mph 29.9 mph N/A   Clear
2:35 PM 79.0 °F - 16.7 °F 10% 30.07 in 10.0 mi WNW 19.6 mph 33.4 mph N/A   Scattered Clouds
2:55 PM 78.6 °F - 17.6 °F 10% 30.07 in 10.0 mi WNW 19.6 mph 24.2 mph N/A   Mostly Cloudy
3:15 PM 79.2 °F - 19.0 °F 11% 30.07 in 10.0 mi West 21.9 mph 33.4 mph N/A   Mostly Cloudy
3:35 PM 77.5 °F - 18.3 °F 11% 30.07 in 10.0 mi NW 16.1 mph 26.5 mph N/A   Mostly Cloudy
3:55 PM 78.1 °F - 19.8 °F 11% 30.07 in 10.0 mi WSW 17.3 mph 29.9 mph N/A   Scattered Clouds
4:15 PM 79.0 °F - 19.8 °F 11% 30.08 in 10.0 mi WNW 12.7 mph 28.8 mph N/A   Mostly Cloudy
4:35 PM 79.2 °F - 20.3 °F 11% 30.08 in 10.0 mi WNW 15.0 mph 26.5 mph N/A   Scattered Clouds
4:55 PM 79.3 °F - 20.1 °F 11% 30.08 in 10.0 mi WNW 12.7 mph 28.8 mph N/A   Mostly Cloudy
5:15 PM 78.8 °F - 19.8 °F 11% 30.09 in 10.0 mi West 19.6 mph 28.8 mph N/A   Mostly Cloudy
5:35 PM 78.3 °F - 20.5 °F 12% 30.09 in 10.0 mi West 13.8 mph 20.7 mph N/A   Mostly Cloudy
5:55 PM 77.4 °F - 21.2 °F 12% 30.10 in 10.0 mi WNW 12.7 mph 35.7 mph N/A   Mostly Cloudy
6:15 PM 75.9 °F - 22.1 °F 13% 30.11 in 10.0 mi NNW 15.0 mph 24.2 mph N/A   Scattered Clouds
6:35 PM 75.6 °F - 21.9 °F 13% 30.11 in 10.0 mi NW 19.6 mph 26.5 mph N/A   Scattered Clouds
6:55 PM 74.3 °F - 21.9 °F 14% 30.12 in 10.0 mi NW 21.9 mph 29.9 mph N/A   Scattered Clouds
7:15 PM 73.2 °F - 23.9 °F 16% 30.13 in 10.0 mi NNW 17.3 mph 23.0 mph N/A   Scattered Clouds
7:35 PM 71.2 °F - 25.9 °F 18% 30.14 in 10.0 mi NNW 13.8 mph - N/A   Clear
7:55 PM 69.8 °F - 27.3 °F 20% 30.15 in 10.0 mi NW 15.0 mph - N/A   Scattered Clouds
8:15 PM 67.6 °F - 28.0 °F 23% 30.15 in 10.0 mi NNW 11.5 mph - N/A   Scattered Clouds
8:35 PM 66.6 °F - 27.3 °F 23% 30.16 in 10.0 mi North 8.1 mph - N/A   Clear
8:55 PM 65.5 °F - 27.3 °F 24% 30.16 in 10.0 mi Calm Calm - N/A   Clear
9:15 PM 61.0 °F - 28.4 °F 29% 30.17 in 10.0 mi WSW 6.9 mph - N/A   Scattered Clouds
9:35 PM 55.8 °F - 29.1 °F 36% 30.18 in 10.0 mi WSW 6.9 mph - N/A   Clear
9:55 PM 54.3 °F - 29.5 °F 39% 30.19 in 10.0 mi SW 4.6 mph - N/A   Scattered Clouds
10:15 PM 59.2 °F - 33.4 °F 38% 30.20 in 10.0 mi SSE 4.6 mph - N/A   Scattered Clouds
10:35 PM 57.7 °F - 35.1 °F 43% 30.21 in 10.0 mi Calm Calm - N/A   Clear
10:55 PM 58.5 °F - 38.3 °F 47% 30.21 in 10.0 mi East 4.6 mph - N/A   Clear
11:15 PM 56.5 °F - 38.3 °F 51% 30.21 in 10.0 mi East 8.1 mph - N/A   Clear
11:35 PM 55.6 °F - 38.5 °F 53% 30.21 in 10.0 mi East 3.5 mph - N/A   Clear
11:55 PM 54.7 °F - 38.5 °F 54% 30.22 in 10.0 mi ESE 4.6 mph - N/A   Clear